Location: ???? ????
(31.2831°N, 45.5190°E)
Time: 09:00:52
(UTC+00:00)

COSMOS 2455 - Pass Details

Date: 24 February 2021
Orbit: 902 x 908 km, 67.1° (Epoch: 15 April)

Event Time Altitude Azimuth Distance (km) Brightness Sun altitude
Rises 16:45:28 0° 333° (NNW) 3,537 6.4 -24.9°
Reaches altitude 10° 16:47:59 10° 331° (NNW) 2,592 5.6 -25.4°
Maximum altitude 16:53:58 74° 248° (WSW) 942 2.9 -26.7°
Enters shadow 16:56:20 38° 172° (S) 1,340 3.6 -27.2°
